"2014-08-14",00:01,14.163,13.242,14.23,13.25,14.256,14.2,86.9,-5.376,-2.162,325.8,381.3,-58.7,-1.33,0.,330.5,0,7999.,0.000,100,100.7216,3.45,3.888,3.138,3.99,195.732,2.101,2.96,195.998,0.522,18.727,19.211,19.192,18.615,16.282,13.928,16.305,-999.,-999.,18.756,-11.303,-4.935,-10.914,-40.459,0.529,0.657,0.7,0.768,0.466,0.656,0.724,0.755,0.549,0.,100.
"2014-08-14",00:02,14.087,13.167,14.16,13.19,14.233,14.14,86.7,-5.45,-2.221,326.,381.4,-58.6,-0.997,0.,330.4,0,7999.,0.001,93.50667,100.7221,3.658,4.263,3.269,4.02,192.935,2.005,2.8,189.271,0.522,18.728,19.192,19.188,18.615,16.268,13.928,16.292,-999.,-999.,18.746,-11.318,-4.938,-10.926,-40.52,0.53,0.656,0.7,0.768,0.466,0.657,0.724,0.759,0.548,0.,100.
"2014-08-14",00:03,13.985,13.082,14.14,13.17,14.22,14.12,86.7,-5.547,-2.293,325.9,380.6,-58.0,-0.997,0.,330.2,0,7999.,0.000,100,100.723,3.513,4.638,3.049,3.52,195.134,1.931,2.35,187.34,0.522,18.727,19.207,19.188,18.615,16.282,13.931,16.275,-999.,-999.,18.76,-11.331,-4.942,-10.937,-40.583,0.53,0.656,0.7,0.769,0.465,0.658,0.723,0.755,0.549,0.,100.
"2014-08-14",00:04,13.955,13.078,14.05,13.09,14.237,14.06,87.,-5.626,-2.347,326.1,380.8,-58.0,-0.997,0.,330.4,0,7999.,0.000,100,100.7237,3.396,4.012,3.235,3.92,195.462,2.184,2.51,189.961,0.522,18.718,19.194,19.188,18.619,16.289,13.928,16.259,-999.,-999.,18.749,-11.345,-4.947,-10.949,-40.672,0.53,0.657,0.699,0.768,0.465,0.656,0.724,0.753,0.549,0.,100.
"2014-08-14",00:05,13.893,13.062,14.03,13.09,14.246,14.03,87.,-5.678,-2.371,326.,380.4,-57.7,-0.997,0.,330.,0,7999.,0.000,100,100.724,3.383,3.888,2.939,3.57,199.396,2.065,2.47,194.195,0.522,18.718,19.208,19.189,18.609,16.292,13.928,16.249,-999.,-999.,18.756,-11.357,-4.95,-10.962,-40.803,0.53,0.657,0.699,0.768,0.466,0.657,0.723,0.758,0.548,0.,100.
"2014-08-14",00:06,13.838,13.003,13.95,13.05,14.253,13.98,87.2,-5.689,-2.383,326.2,380.8,-57.9,-0.997,0.,329.9,0,7999.,0.000,100,100.723,3.175,3.513,3.145,3.57,196.129,2.2,2.87,197.133,0.522,18.704,19.179,19.185,18.615,16.296,13.928,16.239,-999.,-999.,18.763,-11.37,-4.956,-10.972,-40.947,0.53,0.656,0.7,0.77,0.465,0.657,0.724,0.755,0.548,0.,100.
"2014-08-14",00:07,13.9,13.075,13.95,13.06,14.253,13.96,87.3,-5.655,-2.359,326.1,381.,-58.2,-1.08,0.,329.9,0,7999.,0.000,100,100.7231,3.471,3.95,3.315,3.9,196.268,2.193,3.03,194.731,0.522,18.708,19.184,19.202,18.612,16.289,13.928,16.243,-999.,-999.,18.756,-11.384,-4.96,-10.986,-41.078,0.531,0.655,0.699,0.768,0.466,0.659,0.723,0.754,0.548,0.,100.
"2014-08-14",00:08,13.894,13.092,13.91,13.06,14.253,13.94,87.6,-5.638,-2.329,326.2,381.1,-58.2,-0.997,0.,329.8,0,7999.,0.000,100,100.7242,3.654,4.075,3.36,3.73,198.666,2.168,2.97,193.801,0.522,18.688,19.202,19.185,18.615,16.299,13.928,16.236,-999.,-999.,18.749,-11.396,-4.964,-10.996,-41.189,0.53,0.656,0.699,0.772,0.465,0.657,0.723,0.757,0.548,0.,100.
"2014-08-14",00:09,13.861,13.058,13.87,13.04,14.227,13.92,87.7,-5.638,-2.341,325.7,380.3,-57.9,-0.997,0.,329.7,0,7999.,0.000,100,100.7248,3.604,3.825,3.357,3.89,196.867,2.033,2.53,192.604,0.522,18.688,19.168,19.189,18.619,16.292,13.928,16.239,-999.,-999.,18.753,-11.411,-4.968,-11.009,-41.27,0.531,0.656,0.699,0.769,0.465,0.659,0.723,0.754,0.549,0.,100.
"2014-08-14",00:10,13.822,13.039,13.83,13.,14.227,13.88,87.7,-5.638,-2.353,326.1,380.8,-58.0,-1.205,0.,329.6,0,7999.,0.000,100,100.7249,3.704,4.138,3.307,3.9,195.934,2.131,2.89,193.522,0.522,18.688,19.158,19.189,18.612,16.296,13.928,16.233,-999.,-999.,18.77,-11.422,-4.971,-11.023,-41.322,0.531,0.655,0.7,0.768,0.465,0.659,0.723,0.754,0.549,0.,100.
"2014-08-14",00:11,13.772,13.,13.83,13.01,14.227,13.86,87.8,-5.638,-2.335,326.,380.5,-57.8,-1.122,0.,329.8,0,7999.,0.000,100,100.7267,3.608,4.888,3.41,3.85,197.331,2.265,3.01,195.666,0.522,18.691,19.187,19.186,18.612,16.292,13.928,16.236,-999.,-999.,18.763,-11.437,-4.976,-11.033,-41.341,0.53,0.656,0.699,0.769,0.465,0.659,0.723,0.759,0.548,0.,100.
"2014-08-14",00:12,13.746,12.96,13.79,13.01,14.217,13.85,87.9,-5.632,-2.329,326.1,381.3,-58.5,-1.33,0.,330.,0,7999.,0.000,100,100.7273,3.95,4.825,3.563,4.07,196.467,2.337,2.92,191.136,0.522,18.695,19.175,19.186,18.616,16.292,13.931,16.2,-999.,-999.,18.77,-11.449,-4.98,-11.047,-41.336,0.531,0.655,0.7,0.768,0.466,0.657,0.724,0.755,0.548,0.,100.
"2014-08-14",00:13,13.799,13.013,13.76,12.98,14.194,13.81,88.1,-5.621,-2.311,326.2,380.7,-57.8,-1.205,0.,329.9,0,7999.,0.001,93.48,100.7269,3.633,4.45,3.533,4.29,196.597,2.221,2.78,191.4,0.522,18.688,19.184,19.189,18.616,16.303,13.934,16.181,-999.,-999.,18.763,-11.465,-4.983,-11.058,-41.341,0.531,0.655,0.7,0.767,0.465,0.657,0.724,0.753,0.549,0.,100.
"2014-08-14",00:14,13.818,13.046,13.83,13.02,14.197,13.84,88.,-5.581,-2.275,326.1,380.9,-58.1,-1.496,0.,329.9,0,7999.,0.000,100,100.7251,3.5,4.638,3.75,4.36,198.604,2.349,3.04,192.731,0.522,18.678,19.174,19.19,18.605,16.313,13.928,16.184,-999.,-999.,18.788,-11.479,-4.987,-11.071,-41.357,0.53,0.656,0.7,0.768,0.465,0.658,0.724,0.755,0.548,0.,100.
"2014-08-14",00:15,13.838,13.056,13.85,13.06,14.188,13.88,88.2,-5.535,-2.227,326.6,380.8,-57.5,-1.371,0.,330.5,0,7999.,0.000,100,100.7219,3.783,4.138,3.645,4.39,199.267,2.201,2.85,192.793,0.522,18.675,19.176,19.186,18.612,16.313,13.931,16.177,-999.,-999.,18.785,-11.493,-4.994,-11.081,-41.357,0.53,0.657,0.7,0.768,0.465,0.657,0.723,0.758,0.549,0.,100.
"2014-08-14",00:16,13.834,13.066,13.84,13.06,14.194,13.87,88.3,-5.501,-2.216,327.1,380.6,-56.8,-1.163,0.,331.,0,7999.,0.000,100,100.7221,3.446,3.888,3.285,3.96,194.134,2.106,2.91,192.338,0.522,18.672,19.19,19.189,18.606,16.317,13.931,16.171,-999.,-999.,18.788,-11.51,-4.996,-11.095,-41.325,0.53,0.657,0.699,0.77,0.465,0.659,0.724,0.755,0.549,0.,100.
"2014-08-14",00:17,13.864,13.072,13.84,13.02,14.194,13.85,88.2,-5.49,-2.221,327.8,380.9,-56.4,-1.205,0.,331.4,0,7999.,0.000,100,100.7231,3.754,4.45,3.601,4.09,198.597,2.385,2.97,197.725,0.522,18.672,19.179,19.193,18.609,16.317,13.931,16.161,-999.,-999.,18.777,-11.523,-4.998,-11.106,-41.294,0.53,0.655,0.7,0.768,0.465,0.657,0.724,0.754,0.548,0.,100.
"2014-08-14",00:18,13.861,13.075,13.85,13.02,14.178,13.85,88.1,-5.479,-2.221,328.1,381.,-56.2,-1.33,0.,331.9,0,7999.,0.000,100,100.7248,3.621,4.325,3.458,3.94,203.198,2.328,3.03,198.602,0.522,18.672,19.166,19.193,18.616,16.313,13.928,16.161,-999.,-999.,18.77,-11.537,-5.002,-11.125,-41.281,0.531,0.655,0.699,0.768,0.465,0.658,0.723,0.755,0.548,0.,100.
"2014-08-14",00:19,13.871,13.072,13.86,13.07,14.174,13.85,88.1,-5.439,-2.216,327.6,380.8,-56.4,-1.454,0.,331.3,0,7999.,0.000,100,100.7229,3.638,4.388,3.307,3.83,202.2,2.315,2.76,195.601,0.522,18.659,19.18,19.183,18.616,16.31,13.928,16.158,-999.,-999.,18.777,-11.55,-5.005,-11.167,-41.236,0.53,0.656,0.699,0.77,0.465,0.657,0.724,0.755,0.549,0.,100.
"2014-08-14",00:20,13.861,13.052,13.86,13.04,14.181,13.85,88.2,-5.433,-2.216,326.7,380.6,-57.1,-0.997,0.,330.6,0,7999.,0.000,100,100.7212,3.45,3.825,3.19,3.78,199.266,2.194,2.66,202.063,0.522,18.67,19.165,19.193,18.609,16.32,13.934,16.161,-999.,-999.,18.781,-11.564,-5.01,-11.183,-41.166,0.529,0.656,0.7,0.77,0.465,0.656,0.723,0.755,0.548,0.,100.
"2014-08-14",00:21,13.891,13.082,13.91,13.07,14.161,13.88,88.,-5.45,-2.233,326.6,379.9,-56.5,-1.163,0.,330.6,0,7999.,0.000,100,100.7209,3.317,3.825,3.135,3.76,199.133,2.187,2.64,197.868,0.522,18.652,19.173,19.18,18.613,16.317,13.938,16.154,-999.,-999.,18.785,-11.584,-5.016,-11.179,-41.113,0.529,0.656,0.7,0.767,0.465,0.659,0.723,0.754,0.548,0.,100.
"2014-08-14",00:22,13.858,13.049,13.92,13.08,14.161,13.9,88.1,-5.45,-2.233,326.6,380.3,-56.9,-1.08,0.,330.6,0,7999.,0.000,100,100.7193,3.271,3.888,3.158,3.78,204.595,2.393,3.01,198.868,0.522,18.659,19.177,19.186,18.602,16.327,13.928,16.135,-999.,-999.,18.771,-11.601,-5.016,-11.189,-41.09,0.53,0.656,0.7,0.769,0.465,0.657,0.723,0.758,0.547,0.,100.
"2014-08-14",00:23,13.832,13.023,13.9,13.05,14.135,13.89,88.,-5.427,-2.21,326.6,380.4,-57.0,-1.039,0.,330.4,0,7999.,0.001,100,100.7185,3.213,3.7,3.22,3.59,204.196,2.325,2.81,203.686,0.522,18.646,19.156,19.193,18.6,16.32,13.928,16.122,-999.,-999.,18.788,-11.618,-5.019,-11.203,-41.09,0.529,0.655,0.699,0.766,0.466,0.657,0.723,0.755,0.548,0.,100.
"2014-08-14",00:24,13.884,13.046,13.89,13.02,14.152,13.87,87.8,-5.399,-2.198,326.6,380.4,-57.0,-1.33,0.,330.4,0,7999.,0.000,100,100.7189,3.379,3.763,3.153,3.84,206.271,2.282,2.99,199.733,0.522,18.656,19.165,19.19,18.617,16.324,13.934,16.099,-999.,-999.,18.768,-11.631,-5.025,-11.213,-41.09,0.53,0.656,0.699,0.768,0.465,0.657,0.723,0.758,0.548,0.,100.
"2014-08-14",00:25,13.914,13.069,13.92,13.02,14.161,13.88,87.6,-5.347,-2.144,326.5,380.7,-57.4,-1.496,0.,330.6,0,7999.,0.000,100,100.7189,3.358,3.638,3.385,4.65,202.586,2.291,2.93,196.866,0.522,18.649,19.156,19.183,18.61,16.32,13.928,16.092,-999.,-999.,18.778,-11.646,-5.027,-11.227,-41.09,0.529,0.656,0.699,0.768,0.465,0.657,0.723,0.755,0.549,0.,100.
"2014-08-14",00:26,13.923,13.062,13.93,13.02,14.171,13.88,87.6,-5.33,-2.144,326.4,380.2,-57.0,-1.496,0.,330.3,0,7999.,0.000,100,100.7206,3.654,4.075,3.137,3.68,203.132,2.196,2.47,202.931,0.522,18.64,19.163,19.187,18.61,16.324,13.934,16.086,-999.,-999.,18.778,-11.66,-5.031,-11.239,-41.069,0.529,0.656,0.7,0.768,0.465,0.657,0.723,0.755,0.548,0.,100.
"2014-08-14",00:27,13.956,13.085,14.,13.08,14.171,13.93,87.5,-5.308,-2.132,326.,380.2,-57.4,-1.496,0.,330.1,0,7999.,0.000,100,100.7191,3.663,4.138,3.059,3.69,201.994,2.139,2.67,201.139,0.522,18.647,19.162,19.18,18.6,16.32,13.931,16.079,-999.,-999.,18.778,-11.675,-5.032,-11.251,-41.032,0.529,0.656,0.7,0.768,0.465,0.657,0.724,0.757,0.547,0.,100.
"2014-08-14",00:28,13.995,13.105,14.02,13.09,14.168,13.96,87.6,-5.302,-2.144,325.8,380.5,-57.9,-1.496,0.,330.1,0,7999.,0.000,100,100.72,3.533,4.263,3.161,3.78,197.217,2.117,2.57,195.203,0.522,18.633,19.16,19.183,18.607,16.32,13.924,16.079,-999.,-999.,18.775,-11.689,-5.036,-11.267,-41.016,0.529,0.655,0.7,0.768,0.464,0.657,0.724,0.753,0.548,0.,100.
"2014-08-14",00:29,14.055,13.125,14.1,13.13,14.158,14.02,87.3,-5.308,-2.15,325.8,380.9,-58.3,-1.496,0.,329.7,0,7999.,0.000,100,100.7201,3.771,4.575,3.513,4.07,196.603,2.418,3.01,199.486,0.522,18.637,19.17,19.187,18.61,16.327,13.931,16.079,-999.,-999.,18.775,-11.705,-5.036,-11.283,-40.998,0.529,0.655,0.7,0.768,0.464,0.657,0.723,0.757,0.548,0.,100.
"2014-08-14",00:30,14.018,13.085,14.12,13.11,14.142,14.04,87.,-5.279,-2.108,325.7,381.,-58.5,-1.496,0.,329.6,0,7999.,0.000,100,100.7209,4.95,6.138,3.567,4.59,208.267,2.747,3.48,209.679,0.522,18.63,19.167,19.183,18.613,16.324,13.928,16.079,-999.,-999.,18.778,-11.717,-5.04,-11.294,-40.943,0.529,0.654,0.7,0.766,0.465,0.657,0.723,0.756,0.548,0.,100.
"2014-08-14",00:31,13.986,13.056,14.08,13.09,14.155,14.01,86.9,-5.245,-2.108,325.3,380.8,-58.6,-1.496,0.,329.6,0,7999.,0.000,100,100.7232,3.554,4.263,3.105,4.02,204.463,2.685,3.6,205.673,0.522,18.634,19.157,19.183,18.593,16.324,13.928,16.079,-999.,-999.,18.772,-11.733,-5.042,-11.313,-40.885,0.53,0.655,0.7,0.768,0.465,0.657,0.724,0.755,0.547,0.,100.
"2014-08-14",00:32,14.074,13.138,14.11,13.09,14.155,14.02,86.7,-5.245,-2.114,325.6,381.,-58.5,-1.496,0.,329.7,0,7999.,0.000,100,100.7235,4.112,4.888,3.243,3.49,209.467,2.388,2.79,205.199,0.522,18.63,19.152,19.193,18.594,16.317,13.928,16.082,-999.,-999.,18.765,-11.746,-5.045,-11.317,-40.794,0.529,0.655,0.7,0.768,0.465,0.658,0.724,0.756,0.547,0.,100.
"2014-08-14",00:33,14.14,13.188,14.17,13.11,14.165,14.03,86.7,-5.211,-2.078,325.4,381.2,-58.9,-1.537,0.,329.3,0,7999.,0.000,100,100.7221,4.012,4.888,3.571,4.13,213.537,2.567,3.58,211.527,0.522,18.63,19.155,19.19,18.597,16.324,13.928,16.06,-999.,-999.,18.775,-11.761,-5.047,-11.316,-40.707,0.529,0.655,0.699,0.768,0.464,0.657,0.723,0.755,0.548,0.,100.
"2014-08-14",00:34,14.123,13.164,14.16,13.11,14.171,14.05,86.8,-5.154,-2.054,325.5,381.3,-58.9,-1.496,0.,329.3,0,7999.,0.000,100,100.7219,4.008,4.45,3.481,4.73,210.731,2.721,3.7,207.078,0.522,18.627,19.149,19.19,18.607,16.324,13.934,16.043,-999.,-999.,18.775,-11.773,-5.05,-11.322,-40.639,0.529,0.657,0.699,0.769,0.465,0.656,0.724,0.754,0.548,0.,100.
"2014-08-14",00:35,14.032,13.089,14.11,13.09,14.142,14.04,86.9,-5.137,-2.072,325.1,380.7,-58.7,-1.496,0.,329.5,0,7999.,0.000,100,100.7233,4.258,5.013,3.345,4.09,208.931,2.037,2.42,206.732,0.522,18.63,19.14,19.183,18.604,16.327,13.931,16.033,-999.,-999.,18.775,-11.788,-5.05,-11.334,-40.566,0.529,0.656,0.7,0.768,0.464,0.657,0.724,0.754,0.547,0.,100.
"2014-08-14",00:36,14.094,13.109,14.13,13.1,14.152,14.03,86.9,-5.16,-2.09,325.7,381.2,-58.6,-1.579,0.,329.5,0,7999.,0.000,100,100.7234,4.342,5.388,3.168,3.89,213.668,2.156,2.6,210.339,0.522,18.63,19.17,19.193,18.604,16.338,13.928,16.02,-999.,-999.,18.772,-11.801,-5.055,-11.346,-40.469,0.529,0.655,0.7,0.767,0.464,0.656,0.724,0.76,0.547,0.,100.
"2014-08-14",00:37,14.202,13.214,14.25,13.15,14.145,14.11,86.4,-5.108,-2.042,325.9,381.7,-58.9,-1.995,0.,329.6,0,7999.,0.000,100,100.7236,3.596,4.888,3.545,4.22,210.932,2.665,3.18,210.265,0.522,18.63,19.148,19.187,18.604,16.324,13.928,16.007,-999.,-999.,18.768,-11.814,-5.057,-11.359,-40.395,0.53,0.655,0.7,0.768,0.465,0.658,0.723,0.756,0.547,0.,100.
"2014-08-14",00:38,14.274,13.257,14.33,13.22,14.151,14.18,86.4,-5.04,-2.018,325.6,382.1,-59.5,-1.953,0.,329.7,0,7999.,0.000,100,100.7222,4.038,4.825,3.766,4.65,213.071,2.823,3.42,214.263,0.522,18.63,19.145,19.19,18.6,16.327,13.928,16.,-999.,-999.,18.775,-11.827,-5.059,-11.374,-40.364,0.529,0.655,0.699,0.767,0.464,0.656,0.725,0.755,0.548,0.,100.
"2014-08-14",00:39,14.212,13.217,14.32,13.21,14.152,14.19,86.3,-4.972,-1.971,325.3,381.6,-59.3,-1.704,0.,329.7,0,7999.,0.000,100,100.7216,4.083,5.013,3.387,4.87,211.191,2.45,2.97,208.2,0.522,18.624,19.151,19.193,18.6,16.341,13.928,16.,-999.,-999.,18.775,-11.839,-5.062,-11.386,-40.324,0.53,0.655,0.7,0.768,0.465,0.657,0.724,0.756,0.547,0.,100.
"2014-08-14",00:40,14.15,13.162,14.25,13.17,14.129,14.15,86.5,-5.006,-1.983,325.8,381.2,-58.4,-1.579,0.,329.9,0,7999.,0.000,100,100.7208,4.346,5.2,3.388,4.21,214.532,2.405,2.96,208.723,0.522,18.621,19.155,19.193,18.607,16.327,13.928,16.004,-999.,-999.,18.772,-11.855,-5.065,-11.399,-40.264,0.529,0.656,0.7,0.769,0.465,0.657,0.723,0.755,0.547,0.,100.
"2014-08-14",00:41,14.169,13.174,14.31,13.19,14.132,14.17,86.3,-5.006,-2.024,326.,381.9,-58.9,-1.537,0.,330.,0,7999.,0.000,100,100.7199,4.237,4.825,3.971,4.47,208.554,2.825,3.62,207.544,0.522,18.614,19.149,19.196,18.607,16.327,13.931,16.011,-999.,-999.,18.779,-11.867,-5.067,-11.411,-40.217,0.529,0.655,0.7,0.768,0.465,0.657,0.724,0.756,0.547,0.,100.
"2014-08-14",00:42,14.179,13.178,14.28,13.18,14.119,14.17,86.3,-5.,-2.012,326.,382.2,-59.2,-1.621,0.,330.1,0,7999.,0.000,100,100.7186,3.825,4.388,3.765,4.98,207.6,2.732,3.4,205.423,0.522,18.617,19.142,19.19,18.604,16.327,13.928,16.004,-999.,-999.,18.779,-11.88,-5.071,-11.424,-40.178,0.529,0.656,0.7,0.768,0.465,0.657,0.724,0.755,0.547,0.,100.
"2014-08-14",00:43,14.297,13.253,14.39,13.23,14.102,14.24,85.9,-4.937,-1.977,325.9,383.1,-60.2,-1.995,0.,329.8,0,7999.,0.000,100,100.7176,4.562,5.2,4.65,5.16,215.935,3.441,4.14,214.045,0.522,18.607,19.133,19.19,18.607,16.327,13.934,16.011,-999.,-999.,18.786,-11.893,-5.072,-11.436,-40.112,0.53,0.655,0.7,0.768,0.464,0.657,0.724,0.755,0.547,0.,100.
"2014-08-14",00:44,14.346,13.289,14.42,13.25,14.096,14.29,85.7,-4.835,-1.941,325.6,382.6,-59.9,-1.995,0.,330.,0,7999.,0.000,100,100.7177,4.158,6.013,3.989,5.07,208.93,2.971,4.66,211.491,0.522,18.604,19.139,19.187,18.597,16.327,13.928,16.004,-999.,-999.,18.772,-11.902,-5.075,-11.449,-39.983,0.53,0.655,0.7,0.768,0.464,0.657,0.724,0.756,0.547,0.,100.
"2014-08-14",00:45,14.445,13.332,14.53,13.32,14.099,14.36,85.5,-4.818,-1.935,325.3,382.2,-59.8,-1.995,0.,330.1,0,7999.,0.000,100,100.7182,5.433,6.513,3.833,4.79,216.603,2.803,3.86,218.793,0.522,18.601,19.138,19.193,18.604,16.334,13.928,15.994,-999.,-999.,18.772,-11.917,-5.079,-11.462,-39.821,0.529,0.655,0.699,0.768,0.464,0.657,0.724,0.755,0.547,0.,100.
"2014-08-14",00:46,14.491,13.352,14.55,13.32,14.089,14.39,85.5,-4.818,-1.947,325.9,382.6,-59.6,-1.995,0.,330.1,0,7999.,0.000,100,100.7167,4.354,5.263,4.211,5.57,212.529,3.097,3.68,212.466,0.522,18.598,19.123,19.187,18.597,16.324,13.928,15.964,-999.,-999.,18.775,-11.932,-5.08,-11.474,-39.677,0.529,0.656,0.7,0.768,0.463,0.657,0.723,0.754,0.547,0.,100.
"2014-08-14",00:47,14.484,13.338,14.59,13.34,14.096,14.45,85.1,-4.784,-1.935,325.6,382.8,-60.0,-1.995,0.,330.2,0,7999.,0.000,100,100.7142,4.883,5.45,4.39,5.32,218.996,2.977,3.77,219.,0.522,18.591,19.113,19.196,18.6,16.327,13.931,15.961,-999.,-999.,18.772,-11.944,-5.083,-11.484,-39.551,0.529,0.655,0.699,0.768,0.464,0.659,0.724,0.753,0.548,0.,100.
"2014-08-14",00:48,14.445,13.309,14.57,13.33,14.099,14.43,85.2,-4.749,-1.935,325.6,382.4,-59.6,-1.953,0.,330.3,0,7999.,0.000,100,100.7144,4.65,5.95,4.109,5.19,217.065,2.951,3.7,214.13,0.522,18.591,19.13,19.193,18.607,16.324,13.931,15.955,-999.,-999.,18.768,-11.953,-5.085,-11.497,-39.414,0.529,0.656,0.7,0.768,0.464,0.657,0.723,0.753,0.547,0.,100.
"2014-08-14",00:49,14.432,13.306,14.58,13.33,14.106,14.45,85.2,-4.795,-1.959,325.5,382.3,-59.6,-1.787,0.,330.2,0,7999.,0.000,100,100.7142,4.462,5.013,4.001,5.51,213.802,2.923,3.98,216.733,0.522,18.581,19.129,19.196,18.604,16.32,13.931,15.945,-999.,-999.,18.768,-11.967,-5.09,-11.508,-39.28,0.529,0.655,0.7,0.767,0.464,0.656,0.724,0.756,0.548,0.,100.
"2014-08-14",00:50,14.484,13.342,14.56,13.32,14.102,14.43,85.2,-4.863,-1.989,325.5,382.2,-59.6,-1.621,0.,330.2,0,7999.,0.000,100,100.7133,4.096,4.638,3.72,4.44,215.737,2.713,3.28,212.531,0.522,18.584,19.116,19.196,18.607,16.327,13.928,15.922,-999.,-999.,18.782,-11.977,-5.09,-11.521,-39.173,0.528,0.656,0.7,0.768,0.463,0.658,0.723,0.758,0.547,0.,100.
"2014-08-14",00:51,14.54,13.388,14.61,13.33,14.112,14.47,84.9,-4.875,-1.983,325.1,382.4,-60.2,-1.995,0.,330.1,0,7999.,0.000,100,100.7137,4.071,4.575,4.195,4.88,215.867,2.993,3.96,213.049,0.522,18.578,19.129,19.19,18.61,16.324,13.928,15.922,-999.,-999.,18.768,-11.99,-5.094,-11.532,-39.06,0.529,0.655,0.7,0.768,0.463,0.656,0.723,0.757,0.547,0.,100.
"2014-08-14",00:52,14.514,13.352,14.59,13.33,14.112,14.49,84.8,-4.903,-2.006,324.9,381.9,-59.9,-1.496,0.,330.1,0,7999.,0.000,100,100.714,3.8,4.95,3.605,4.58,214.464,2.801,3.51,216.665,0.522,18.571,19.129,19.183,18.604,16.327,13.928,15.922,-999.,-999.,18.772,-12.001,-5.097,-11.543,-38.952,0.529,0.655,0.699,0.771,0.464,0.657,0.724,0.756,0.547,0.,100.
"2014-08-14",00:53,14.458,13.312,14.53,13.31,14.135,14.43,84.9,-4.977,-2.048,324.9,381.8,-59.8,-1.496,0.,329.9,0,7999.,0.000,100,100.7129,3.925,5.763,3.32,4.07,211.137,2.605,3.25,210.399,0.522,18.568,19.124,19.193,18.6,16.32,13.928,15.922,-999.,-999.,18.772,-12.013,-5.099,-11.555,-38.858,0.529,0.655,0.699,0.768,0.464,0.658,0.724,0.755,0.547,0.,100.
"2014-08-14",00:54,14.468,13.302,14.54,13.32,14.119,14.43,85.1,-4.994,-2.066,324.8,381.8,-59.9,-1.496,0.,329.9,0,7999.,0.001,100,100.7111,3.8,4.638,3.475,4.04,215.732,2.572,3.04,216.737,0.522,18.568,19.126,19.183,18.604,16.324,13.928,15.922,-999.,-999.,18.768,-12.024,-5.103,-11.568,-38.792,0.529,0.656,0.699,0.77,0.463,0.656,0.724,0.755,0.547,0.,100.
"2014-08-14",00:55,14.461,13.315,14.49,13.28,14.142,14.39,85.3,-5.023,-2.078,325.,381.9,-59.8,-1.496,0.,329.9,0,7999.,0.000,100,100.7083,3.7,4.513,3.608,4.83,212.265,2.559,3.74,214.407,0.522,18.562,19.115,19.19,18.6,16.324,13.928,15.922,-999.,-999.,18.775,-12.038,-5.106,-11.578,-38.774,0.529,0.655,0.7,0.77,0.463,0.658,0.724,0.756,0.547,0.,100.
"2014-08-14",00:56,14.379,13.292,14.48,13.28,14.158,14.39,85.2,-5.011,-2.048,325.1,382.6,-60.5,-1.496,0.,329.8,0,7999.,0.000,100,100.71,4.263,4.888,3.792,4.32,214.929,3.027,3.91,211.916,0.522,18.565,19.115,19.193,18.597,16.31,13.928,15.922,-999.,-999.,18.765,-12.049,-5.108,-11.587,-38.787,0.529,0.656,0.699,0.768,0.464,0.657,0.723,0.755,0.546,0.,100.
"2014-08-14",00:57,14.392,13.309,14.48,13.28,14.152,14.38,85.2,-4.994,-2.042,324.9,381.8,-59.9,-1.662,0.,329.7,0,7999.,0.000,100,100.7086,3.463,3.95,3.773,4.54,212.338,2.676,3.28,212.733,0.522,18.562,19.113,19.193,18.604,16.317,13.928,15.919,-999.,-999.,18.768,-12.06,-5.113,-11.599,-38.771,0.528,0.656,0.699,0.77,0.464,0.657,0.724,0.755,0.547,0.,100.
"2014-08-14",00:58,14.455,13.325,14.52,13.31,14.132,14.41,85.1,-5.,-2.042,324.8,381.6,-59.8,-1.537,0.,329.9,0,7999.,0.000,100,100.7082,4.033,4.95,3.997,4.76,217.931,2.599,3.1,212.889,0.522,18.568,19.105,19.187,18.604,16.327,13.928,15.925,-999.,-999.,18.772,-12.062,-5.119,-11.61,-38.748,0.529,0.655,0.7,0.766,0.464,0.657,0.724,0.756,0.547,0.,100.
"2014-08-14",00:59,14.484,13.345,14.54,13.32,14.119,14.42,85.1,-5.006,-2.012,324.9,382.2,-60.3,-1.787,0.,329.4,0,7999.,0.000,100,100.7052,4.104,5.075,3.977,4.65,212.211,2.975,3.89,210.605,0.522,18.551,19.125,19.193,18.6,16.32,13.928,15.909,-999.,-999.,18.772,-12.071,-5.121,-11.622,-38.748,0.528,0.657,0.7,0.768,0.464,0.657,0.724,0.76,0.546,0.,100.
"2014-08-14",01:00,14.415,13.276,14.49,13.28,14.142,14.42,85.2,-4.989,-2.036,324.8,382.1,-60.3,-1.496,0.,329.7,0,7999.,0.000,100,100.705,3.679,4.138,3.347,4.22,214.937,2.569,3.23,212.939,0.522,18.551,19.108,19.19,18.607,16.317,13.928,15.899,-999.,-999.,18.768,-12.087,-5.126,-11.632,-38.74,0.529,0.655,0.7,0.768,0.464,0.657,0.723,0.757,0.546,0.,100.
"2014-08-14",01:01,14.402,13.269,14.49,13.25,14.161,14.39,85.,-5.017,-2.048,324.7,381.9,-60.2,-1.496,0.,329.9,0,7999.,0.000,100,100.706,3.475,4.513,3.503,4.39,212.734,2.334,3.33,213.396,0.522,18.552,19.108,19.187,18.61,16.317,13.931,15.869,-999.,-999.,18.772,-12.1,-5.13,-11.641,-38.692,0.529,0.656,0.699,0.768,0.464,0.657,0.723,0.758,0.546,0.,100.
"2014-08-14",01:02,14.524,13.335,14.52,13.29,14.158,14.42,84.8,-5.046,-2.072,325.,381.9,-59.9,-1.496,0.,330.,0,7999.,0.000,100,100.7042,3.821,4.888,3.433,4.74,213.09,2.413,3.62,212.256,0.522,18.548,19.115,19.19,18.6,16.324,13.928,15.879,-999.,-999.,18.775,-12.111,-5.137,-11.65,-38.666,0.529,0.654,0.699,0.769,0.463,0.656,0.723,0.761,0.546,0.,100.
"2014-08-14",01:03,14.428,13.285,14.54,13.31,14.148,14.45,84.7,-5.063,-2.078,324.8,381.7,-59.9,-1.496,0.,329.8,0,7999.,0.000,100,100.7075,3.9,4.325,3.493,4.56,212.791,2.319,3.52,208.323,0.522,18.548,19.121,19.187,18.6,16.33,13.928,15.863,-999.,-999.,18.768,-12.12,-5.14,-11.663,-38.692,0.53,0.655,0.7,0.768,0.463,0.658,0.723,0.755,0.547,0.,100.
"2014-08-14",01:04,14.363,13.233,14.47,13.25,14.151,14.39,85.1,-5.097,-2.084,325.,381.8,-59.8,-1.496,0.,329.9,0,7999.,0.000,100,100.708,4.021,4.638,3.172,3.69,214.001,2.579,3.99,216.735,0.522,18.551,19.111,19.187,18.6,16.33,13.931,15.863,-999.,-999.,18.779,-12.132,-5.143,-11.674,-38.75,0.529,0.655,0.699,0.769,0.463,0.657,0.723,0.755,0.547,0.,100.
"2014-08-14",01:05,14.379,13.253,14.46,13.25,14.129,14.37,85.2,-5.097,-2.09,325.1,382.3,-60.2,-1.496,0.,329.7,0,7999.,0.000,100,100.7072,3.846,4.575,4.116,4.93,214.536,3.514,4.38,213.264,0.522,18.552,19.111,19.19,18.597,16.324,13.928,15.85,-999.,-999.,18.772,-12.142,-5.148,-11.681,-38.81,0.529,0.655,0.7,0.768,0.464,0.656,0.723,0.756,0.546,0.,100.
"2014-08-14",01:06,14.376,13.236,14.42,13.24,14.102,14.36,85.1,-5.074,-2.09,324.8,381.7,-59.9,-1.496,0.,329.7,0,7999.,0.000,100,100.7091,3.762,5.575,3.66,4.48,214.866,2.943,3.57,216.871,0.522,18.548,19.107,19.187,18.597,16.327,13.928,15.847,-999.,-999.,18.768,-12.153,-5.153,-11.692,-38.813,0.529,0.655,0.7,0.767,0.464,0.656,0.723,0.764,0.546,0.,100.
"2014-08-14",01:07,14.448,13.312,14.43,13.24,14.099,14.35,84.9,-5.08,-2.078,325.2,382.4,-60.2,-1.496,0.,329.8,0,7999.,0.000,100,100.7092,4.296,5.2,3.833,4.22,212.993,3.037,3.41,213.866,0.522,18.539,19.107,19.19,18.6,16.324,13.928,15.847,-999.,-999.,18.772,-12.163,-5.158,-11.703,-38.76,0.529,0.655,0.7,0.767,0.463,0.657,0.723,0.756,0.547,0.,100.
"2014-08-14",01:08,14.442,13.309,14.47,13.25,14.099,14.37,84.9,-5.034,-2.066,325.3,382.6,-60.3,-1.496,0.,329.7,0,7999.,0.000,100,100.7092,3.858,4.45,3.904,5.02,212.93,2.774,3.43,205.359,0.522,18.538,19.106,19.183,18.6,16.324,13.931,15.843,-999.,-999.,18.765,-12.175,-5.163,-11.71,-38.692,0.528,0.655,0.701,0.768,0.463,0.657,0.723,0.756,0.546,0.,100.